Date,Installs,Update checks
2015-12-26,0,0
2015-12-27,10,1
2015-12-28,1,6
2015-12-29,3,5
2015-12-30,0,6
2015-12-31,2,4
2016-01-01,1,8
2016-01-02,3,7
2016-01-03,0,7
2016-01-04,1,5
2016-01-05,2,12
2016-01-06,2,6
2016-01-07,1,12
2016-01-08,2,6
2016-01-09,0,9
2016-01-10,0,6
2016-01-11,1,9
2016-01-12,0,7
2016-01-13,1,10
2016-01-14,0,6
2016-01-15,0,8
2016-01-16,3,7
2016-01-17,2,9
2016-01-18,4,10
2016-01-19,3,6
2016-01-20,2,11
2016-01-21,0,6
2016-01-22,1,11
2016-01-23,5,7
2016-01-24,1,14
2016-01-25,1,9
2016-01-26,1,15
2016-01-27,2,9
2016-01-28,0,14
2016-01-29,1,9
2016-01-30,0,15
2016-01-31,1,12
2016-02-01,3,13
2016-02-02,0,14
2016-02-03,0,15
2016-02-04,0,11
2016-02-05,0,15
2016-02-06,1,9
2016-02-07,0,14
2016-02-08,0,13
2016-02-09,3,12
2016-02-10,3,14
2016-02-11,3,13
2016-02-12,0,12
2016-02-13,0,13
2016-02-14,2,11
2016-02-15,1,15
2016-02-16,0,13
2016-02-17,0,13
2016-02-18,0,11
2016-02-19,0,13
2016-02-20,0,15
2016-02-21,0,12
2016-02-22,0,12
2016-02-23,0,19
2016-02-24,0,11
2016-02-25,0,16
2016-02-26,3,12
2016-02-27,3,15
2016-02-28,0,11
2016-02-29,1,15
2016-03-01,3,14
2016-03-02,2,19
2016-03-03,2,12
2016-03-04,2,19
2016-03-05,1,19
2016-03-06,4,15
2016-03-07,0,17
2016-03-08,0,14
2016-03-09,0,13
2016-03-10,0,17
2016-03-11,2,15
2016-03-12,3,15
2016-03-13,2,14
2016-03-14,0,14
2016-03-15,0,19
2016-03-16,1,14
2016-03-17,0,16
2016-03-18,0,14
2016-03-19,0,17
2016-03-20,0,10
2016-03-21,1,18
2016-03-22,0,10
2016-03-23,0,20
2016-03-24,5,12
2016-03-25,4,19
2016-03-26,0,14
2016-03-27,0,15
2016-03-28,1,15
2016-03-29,0,18
2016-03-30,0,19
2016-03-31,2,14
2016-04-01,1,19
2016-04-02,0,15
2016-04-03,0,17
2016-04-04,0,17
2016-04-05,0,18
2016-04-06,1,17
2016-04-07,0,17
2016-04-08,1,14
2016-04-09,0,15
2016-04-10,0,14
2016-04-11,1,14
2016-04-12,2,13
2016-04-13,1,18
2016-04-14,1,11
2016-04-15,0,23
2016-04-16,2,10
2016-04-17,0,22
2016-04-18,0,15
2016-04-19,2,22
2016-04-20,1,14
2016-04-21,0,23
2016-04-22,0,10
2016-04-23,3,22
2016-04-24,4,14
2016-04-25,2,20
2016-04-26,5,16
2016-04-27,3,21
2016-04-28,2,17
2016-04-29,0,23
2016-04-30,4,19
2016-05-01,0,22
2016-05-02,0,21
2016-05-03,0,24
2016-05-04,0,24
2016-05-05,3,21
2016-05-06,3,24
2016-05-07,2,18
2016-05-08,2,27
2016-05-09,0,23
2016-05-10,1,23
2016-05-11,0,28
2016-05-12,1,25
2016-05-13,1,23
2016-05-14,1,18
2016-05-15,0,26
2016-05-16,0,26
2016-05-17,0,26
2016-05-18,4,27
2016-05-19,1,32
2016-05-20,2,35
2016-05-21,0,33
2016-05-22,0,29
2016-05-23,2,41
2016-05-24,0,46
2016-05-25,0,46
2016-05-26,2,50
2016-05-27,0,42
2016-05-28,3,50
2016-05-29,2,53
2016-05-30,2,67
2016-05-31,3,65
2016-06-01,3,76
2016-06-02,0,70
2016-06-03,0,62
2016-06-04,2,75
2016-06-05,0,60
2016-06-06,4,84
2016-06-07,3,70
2016-06-08,1,86
2016-06-09,2,77
2016-06-10,1,76
2016-06-11,0,74
2016-06-12,0,60
2016-06-13,1,83
2016-06-14,1,77
2016-06-15,3,79
2016-06-16,3,79
2016-06-17,0,68
2016-06-18,0,75
2016-06-19,1,74
2016-06-20,1,95
2016-06-21,0,80
2016-06-22,0,86
2016-06-23,3,77
2016-06-24,1,81
2016-06-25,1,78
2016-06-26,1,75
2016-06-27,1,94
2016-06-28,0,73
2016-06-29,2,96
2016-06-30,1,90
2016-07-01,0,87
2016-07-02,0,80
2016-07-03,1,74
2016-07-04,0,87
2016-07-05,2,85
2016-07-06,1,86
2016-07-07,0,80
2016-07-08,0,90
2016-07-09,0,75
2016-07-10,1,81
2016-07-11,1,93
2016-07-12,3,80
2016-07-13,1,92
2016-07-14,1,94
2016-07-15,1,90
2016-07-16,1,76
2016-07-17,0,77
2016-07-18,1,81
2016-07-19,4,81
2016-07-20,0,92
2016-07-21,0,96
2016-07-22,2,77
2016-07-23,0,89
2016-07-24,1,71
2016-07-25,1,100
2016-07-26,1,79
2016-07-27,0,90
2016-07-28,1,88
2016-07-29,0,91
2016-07-30,2,81
2016-07-31,0,82
2016-08-01,1,102
2016-08-02,0,76
2016-08-03,0,104
2016-08-04,0,74
2016-08-05,0,95
2016-08-06,0,71
2016-08-07,0,79
2016-08-08,0,85
2016-08-09,4,81
2016-08-10,1,90
2016-08-11,0,79
2016-08-12,2,89
2016-08-13,5,65
2016-08-14,4,73
2016-08-15,2,94
2016-08-16,1,90
2016-08-17,2,96
2016-08-18,0,99
2016-08-19,1,83
2016-08-20,0,94
2016-08-21,1,88
2016-08-22,1,107
2016-08-23,2,84
2016-08-24,3,101
2016-08-25,4,90
2016-08-26,2,94
2016-08-27,1,82
2016-08-28,2,83
2016-08-29,4,105
2016-08-30,2,93
2016-08-31,2,105
2016-09-01,1,89
2016-09-02,0,101
2016-09-03,1,95
2016-09-04,4,91
2016-09-05,1,104
2016-09-06,1,107
2016-09-07,1,93
2016-09-08,3,112
2016-09-09,0,104
2016-09-10,1,86
2016-09-11,0,99
2016-09-12,3,113
2016-09-13,2,102
2016-09-14,0,114
2016-09-15,0,103
2016-09-16,0,109
2016-09-17,0,84
2016-09-18,2,97
2016-09-19,1,100
2016-09-20,2,108
2016-09-21,1,91
2016-09-22,2,114
2016-09-23,1,104
2016-09-24,0,94
2016-09-25,1,91
2016-09-26,3,109
2016-09-27,1,95
2016-09-28,3,111
2016-09-29,1,100
2016-09-30,0,107
2016-10-01,1,93
2016-10-02,2,103
2016-10-03,2,112
2016-10-04,2,97
2016-10-05,5,117
2016-10-06,3,114
2016-10-07,3,116
2016-10-08,3,100
2016-10-09,3,98
2016-10-10,1,127
2016-10-11,3,116
2016-10-12,0,117
2016-10-13,2,123
2016-10-14,1,122
2016-10-15,4,94
2016-10-16,2,107
2016-10-17,3,125
2016-10-18,5,114
2016-10-19,3,142
2016-10-20,0,121
2016-10-21,5,116
2016-10-22,2,108
2016-10-23,3,104
2016-10-24,0,120
2016-10-25,6,128
2016-10-26,3,131
2016-10-27,3,124
2016-10-28,2,131
2016-10-29,2,113
2016-10-30,2,110
2016-10-31,3,136
2016-11-01,1,133
2016-11-02,1,134
2016-11-03,0,129
2016-11-04,0,141
2016-11-05,2,119
2016-11-06,1,118
2016-11-07,3,151
2016-11-08,5,130
2016-11-09,1,143
2016-11-10,1,139
2016-11-11,4,142
2016-11-12,2,121
2016-11-13,1,130
2016-11-14,3,148
2016-11-15,1,148
2016-11-16,0,139
2016-11-17,1,145
2016-11-18,1,134
2016-11-19,1,125
2016-11-20,0,122
2016-11-21,2,148
2016-11-22,3,142
2016-11-23,4,140
2016-11-24,2,134
2016-11-25,1,140
2016-11-26,1,130
2016-11-27,1,108
2016-11-28,4,160
2016-11-29,1,123
2016-11-30,1,147
2016-12-01,2,130
2016-12-02,1,138
2016-12-03,1,122
2016-12-04,3,120
2016-12-05,0,155
2016-12-06,1,127
2016-12-07,0,136
2016-12-08,3,121
2016-12-09,4,148
2016-12-10,0,118
2016-12-11,2,125
2016-12-12,1,141
2016-12-13,2,130
2016-12-14,1,153
2016-12-15,3,129
2016-12-16,5,150
2016-12-17,1,124
2016-12-18,0,125
2016-12-19,0,149
2016-12-20,3,131
2016-12-21,2,147
2016-12-22,2,119
2016-12-23,1,136
2016-12-24,0,109
2016-12-25,1,120
2016-12-26,0,124
2016-12-27,0,141
2016-12-28,1,116
2016-12-29,2,144
2016-12-30,0,128
2016-12-31,2,107
2017-01-01,1,126
2017-01-02,6,133
2017-01-03,3,153
2017-01-04,0,137
2017-01-05,0,146
2017-01-06,0,143
2017-01-07,3,146
2017-01-08,4,122
2017-01-09,1,186
2017-01-10,1,138
2017-01-11,2,193
2017-01-12,2,132
2017-01-13,0,179
2017-01-14,0,126
2017-01-15,1,156
2017-01-16,3,156
2017-01-17,2,156
2017-01-18,1,162
2017-01-19,2,167
2017-01-20,0,159
2017-01-21,2,140
2017-01-22,0,138
2017-01-23,0,168
2017-01-24,3,150
2017-01-25,4,176
2017-01-26,1,157
2017-01-27,0,166
2017-01-28,0,153
2017-01-29,1,150
2017-01-30,0,173
2017-01-31,1,168
2017-02-01,1,177
2017-02-02,1,165
2017-02-03,3,179
2017-02-04,0,135
2017-02-05,2,147
2017-02-06,4,180
2017-02-07,2,166
2017-02-08,2,163
2017-02-09,2,164
2017-02-10,1,161
2017-02-11,2,145
2017-02-12,2,155
2017-02-13,2,178
2017-02-14,3,171
2017-02-15,3,180
2017-02-16,4,166
2017-02-17,1,170
2017-02-18,8,158
2017-02-19,1,180
2017-02-20,1,185
2017-02-21,3,155
2017-02-22,0,189
2017-02-23,0,190
2017-02-24,2,163
2017-02-25,2,161
2017-02-26,0,156
2017-02-27,1,199
2017-02-28,1,174
2017-03-01,0,196
2017-03-02,0,166
2017-03-03,3,185
2017-03-04,0,155
2017-03-05,4,151
2017-03-06,7,180
2017-03-07,3,178
2017-03-08,1,177
2017-03-09,0,182
2017-03-10,4,168
2017-03-11,2,161
2017-03-12,3,150
2017-03-13,0,194
2017-03-14,3,170
2017-03-15,1,194
2017-03-16,0,187
2017-03-17,4,179
2017-03-18,2,166
2017-03-19,1,159
2017-03-20,1,193
2017-03-21,2,166
2017-03-22,4,218
2017-03-23,6,188
2017-03-24,1,202
2017-03-25,0,167
2017-03-26,2,177
2017-03-27,2,188
2017-03-28,0,191
2017-03-29,2,187
2017-03-30,2,199
2017-03-31,0,188
2017-04-01,1,162
2017-04-02,2,165
2017-04-03,0,221
2017-04-04,2,170
2017-04-05,4,213
2017-04-06,1,176
2017-04-07,3,202
2017-04-08,1,158
2017-04-09,0,170
2017-04-10,0,209
2017-04-11,0,165
2017-04-12,1,195
2017-04-13,1,195
2017-04-14,2,154
2017-04-15,0,169
2017-04-16,0,156
2017-04-17,1,187
2017-04-18,2,194
2017-04-19,1,196
2017-04-20,0,183
2017-04-21,2,182
2017-04-22,3,1
2017-04-23,4,278
2017-04-24,2,123
2017-04-25,3,255
2017-04-26,2,150
2017-04-27,1,247
2017-04-28,2,145
2017-04-29,0,207
2017-04-30,2,156
2017-05-01,3,230
2017-05-02,0,169
2017-05-03,0,210
2017-05-04,1,194
2017-05-05,1,201
2017-05-06,2,146
2017-05-07,0,207
2017-05-08,3,194
2017-05-09,2,196
2017-05-10,1,201
2017-05-11,1,215
2017-05-12,0,194
2017-05-13,0,186
2017-05-14,1,160
2017-05-15,1,233
2017-05-16,0,179
2017-05-17,1,231
2017-05-18,0,194
2017-05-19,1,202
2017-05-20,0,171
2017-05-21,1,178
2017-05-22,0,214
2017-05-23,3,194
2017-05-24,1,216
2017-05-25,4,183
2017-05-26,1,194
2017-05-27,4,175
2017-05-28,3,170
2017-05-29,5,207
2017-05-30,2,208
2017-05-31,0,226
2017-06-01,2,187
2017-06-02,3,219
2017-06-03,1,157
2017-06-04,3,182
2017-06-05,1,221
2017-06-06,5,224
2017-06-07,4,201
2017-06-08,5,210
2017-06-09,3,194
2017-06-10,2,192
2017-06-11,6,178
2017-06-12,4,228
2017-06-13,2,184
2017-06-14,3,234
2017-06-15,1,190
2017-06-16,3,201
2017-06-17,1,191
2017-06-18,1,188
2017-06-19,1,240
2017-06-20,1,205
2017-06-21,2,230
2017-06-22,0,211
2017-06-23,1,199
2017-06-24,3,205
2017-06-25,4,184
2017-06-26,3,229
2017-06-27,4,217
2017-06-28,0,227
2017-06-29,1,213
2017-06-30,0,212
2017-07-01,1,191
2017-07-02,4,196
2017-07-03,1,225
2017-07-04,8,213
2017-07-05,2,226
2017-07-06,1,228
2017-07-07,1,193
2017-07-08,2,202
2017-07-09,0,178
2017-07-10,2,222
2017-07-11,3,210
2017-07-12,1,248
2017-07-13,2,206
2017-07-14,0,208
2017-07-15,1,177
2017-07-16,1,191
2017-07-17,0,232
2017-07-18,3,207
2017-07-19,3,204
2017-07-20,2,213
2017-07-21,3,303
2017-07-22,5,182
2017-07-23,1,255
2017-07-24,2,242
2017-07-25,2,268
2017-07-26,4,222
2017-07-27,2,273
2017-07-28,1,248
2017-07-29,0,236
2017-07-30,1,219
2017-07-31,1,278
2017-08-01,1,252
2017-08-02,0,258
2017-08-03,0,252
2017-08-04,1,240
2017-08-05,0,217
2017-08-06,2,235
2017-08-07,5,258
2017-08-08,3,253
2017-08-09,3,261
2017-08-10,0,269
2017-08-11,1,248
2017-08-12,0,217
2017-08-13,4,218
2017-08-14,2,271
2017-08-15,1,270
2017-08-16,0,257
2017-08-17,2,262
2017-08-18,2,244
2017-08-19,1,220
2017-08-20,0,241
2017-08-21,2,256
2017-08-22,2,234
2017-08-23,0,208
2017-08-24,1,269
2017-08-25,2,234
2017-08-26,3,214
2017-08-27,1,235
2017-08-28,1,273
2017-08-29,2,264
2017-08-30,2,257
2017-08-31,1,271
2017-09-01,2,237
2017-09-02,1,234
2017-09-03,1,229
2017-09-04,1,265
2017-09-05,4,261
2017-09-06,0,203
2017-09-07,1,258
2017-09-08,0,251
2017-09-09,1,201
2017-09-10,0,213
2017-09-11,0,254
2017-09-12,0,240
2017-09-13,0,203
2017-09-14,0,262
2017-09-15,1,228
2017-09-16,0,213
2017-09-17,1,206
2017-09-18,1,270
2017-09-19,3,222
2017-09-20,2,244
2017-09-21,1,247
2017-09-22,3,260
2017-09-23,2,204
2017-09-24,0,218
2017-09-25,5,269
2017-09-26,1,240
2017-09-27,1,256
2017-09-28,2,246
2017-09-29,1,240
2017-09-30,0,206
2017-10-01,4,235
2017-10-02,2,252
2017-10-03,2,258
2017-10-04,2,242
2017-10-05,2,246
2017-10-06,1,248
2017-10-07,2,222
2017-10-08,3,234
2017-10-09,0,264
2017-10-10,0,246
2017-10-11,0,258
2017-10-12,1,257
2017-10-13,3,239
2017-10-14,0,207
2017-10-15,1,232
2017-10-16,1,247
2017-10-17,0,246
2017-10-18,1,248
2017-10-19,1,258
2017-10-20,4,233
2017-10-21,3,202
2017-10-22,0,242
2017-10-23,2,271
2017-10-24,0,253
2017-10-25,1,239
2017-10-26,3,252
2017-10-27,2,255
2017-10-28,1,217
2017-10-29,0,241
2017-10-30,2,264
2017-10-31,2,241
2017-11-01,1,255
2017-11-02,0,263
2017-11-03,0,234
2017-11-04,3,233
2017-11-05,4,233
2017-11-06,1,188
2017-11-07,4,290
2017-11-08,3,260
2017-11-09,1,261
2017-11-10,1,268
2017-11-11,1,219
2017-11-12,0,238
2017-11-13,0,288
2017-11-14,5,267
2017-11-15,6,257
2017-11-16,2,258
2017-11-17,4,241
2017-11-18,3,203
2017-11-19,3,237
2017-11-20,4,257
2017-11-21,4,257
2017-11-22,2,253
2017-11-23,2,219
2017-11-24,0,241
2017-11-25,2,203
2017-11-26,3,223
2017-11-27,3,257
2017-11-28,1,265
2017-11-29,2,234
2017-11-30,1,258
2017-12-01,3,251
2017-12-02,1,219
2017-12-03,1,228
2017-12-04,4,272
2017-12-05,0,245
2017-12-06,5,257
2017-12-07,3,243
2017-12-08,0,267
2017-12-09,0,230
2017-12-10,0,232
2017-12-11,1,256
2017-12-12,0,266
2017-12-13,1,241
2017-12-14,0,257
2017-12-15,1,221
2017-12-16,3,231
2017-12-17,2,219
2017-12-18,0,256
2017-12-19,1,248
2017-12-20,0,246
2017-12-21,0,235
2017-12-22,0,226
2017-12-23,2,198
2017-12-24,1,186
2017-12-25,0,201
2017-12-26,2,225
2017-12-27,2,236
2017-12-28,2,216
2017-12-29,1,226
2017-12-30,6,204
2017-12-31,1,193
2018-01-01,5,221
2018-01-02,1,255
2018-01-03,7,237
2018-01-04,3,251
2018-01-05,1,246
2018-01-06,4,228
2018-01-07,1,230
2018-01-08,1,269
2018-01-09,3,267
2018-01-10,2,263
2018-01-11,0,266
2018-01-12,1,250
2018-01-13,3,249
2018-01-14,2,244
2018-01-15,2,279
2018-01-16,3,265
2018-01-17,2,265
2018-01-18,1,268
2018-01-19,4,257
2018-01-20,1,255
2018-01-21,2,244
2018-01-22,4,293
2018-01-23,1,297
2018-01-24,4,276
2018-01-25,1,291
2018-01-26,3,281
2018-01-27,2,250
2018-01-28,1,237
2018-01-29,1,291
2018-01-30,8,287
2018-01-31,5,280
2018-02-01,2,311
2018-02-02,1,284
2018-02-03,4,252
2018-02-04,2,262
2018-02-05,4,298
2018-02-06,3,274
2018-02-07,5,296
2018-02-08,2,280
2018-02-09,1,289
2018-02-10,1,258
2018-02-11,2,267
2018-02-12,4,302
2018-02-13,3,295
2018-02-14,2,294
2018-02-15,1,295
2018-02-16,1,287
2018-02-17,0,266
2018-02-18,0,273
2018-02-19,1,296
2018-02-20,2,304
2018-02-21,0,288
2018-02-22,2,306
2018-02-23,1,305
2018-02-24,2,244
2018-02-25,1,237
2018-02-26,1,280
2018-02-27,3,288
2018-02-28,6,278
2018-03-01,3,297
2018-03-02,1,266
2018-03-03,2,248
2018-03-04,4,229
2018-03-05,2,285
2018-03-06,3,267
2018-03-07,1,249
2018-03-08,1,298
2018-03-09,3,277
2018-03-10,2,220
2018-03-11,4,279
2018-03-12,0,307
2018-03-13,3,283
2018-03-14,1,287
2018-03-15,1,286
2018-03-16,1,277
2018-03-17,1,240
2018-03-18,2,258
2018-03-19,0,296
2018-03-20,0,292
2018-03-21,0,278
2018-03-22,0,294
2018-03-23,0,258
2018-03-24,1,248
2018-03-25,0,248
2018-03-26,0,294
2018-03-27,1,280
2018-03-28,2,275
2018-03-29,2,266
2018-03-30,3,248
2018-03-31,2,215
2018-04-01,2,225
2018-04-02,4,261
2018-04-03,1,293
2018-04-04,3,285
2018-04-05,1,285
2018-04-06,4,261
2018-04-07,0,253
2018-04-08,0,241
2018-04-09,1,286
2018-04-10,1,299
2018-04-11,2,273
2018-04-12,1,269
2018-04-13,2,268
2018-04-14,1,237
2018-04-15,1,266
2018-04-16,2,302
2018-04-17,2,298
2018-04-18,0,285
2018-04-19,0,291
2018-04-20,1,263
2018-04-21,5,253
2018-04-22,3,269
2018-04-23,0,302
2018-04-24,1,267
2018-04-25,4,301
2018-04-26,3,269
2018-04-27,2,260
2018-04-28,1,252
2018-04-29,1,256
2018-04-30,2,287
2018-05-01,3,280
2018-05-02,1,289
2018-05-03,1,279
2018-05-04,3,257
2018-05-05,3,244
2018-05-06,1,256
2018-05-07,1,289
2018-05-08,1,277
2018-05-09,0,292
2018-05-10,1,291
2018-05-11,1,278
2018-05-12,0,226
2018-05-13,2,256
2018-05-14,2,292
2018-05-15,2,316
2018-05-16,3,279
2018-05-17,1,282
2018-05-18,2,274
2018-05-19,1,177
2018-05-20,2,268
2018-05-21,0,270
2018-05-22,3,279
2018-05-23,1,297
2018-05-24,1,265
2018-05-25,1,283
2018-05-26,4,235
2018-05-27,2,267
2018-05-28,1,275
2018-05-29,6,298
2018-05-30,1,275
2018-05-31,3,289
2018-06-01,0,272
2018-06-02,2,192
2018-06-03,2,233
2018-06-04,3,231
2018-06-05,1,240
2018-06-06,0,227
2018-06-07,2,230
2018-06-08,1,215
2018-06-09,1,180
2018-06-10,0,200
2018-06-11,3,230
2018-06-12,2,236
2018-06-13,1,252
2018-06-14,1,236
2018-06-15,0,223
2018-06-16,0,184
2018-06-17,1,215
2018-06-18,1,246
2018-06-19,1,248
2018-06-20,2,220
2018-06-21,5,239
2018-06-22,1,214
2018-06-23,1,194
2018-06-24,1,217
2018-06-25,2,239
2018-06-26,0,228
2018-06-27,0,246
2018-06-28,1,217
2018-06-29,0,215
2018-06-30,1,184
2018-07-01,0,208
2018-07-02,5,220
2018-07-03,1,222
2018-07-04,2,247
2018-07-05,0,228
2018-07-06,0,223
2018-07-07,0,180
2018-07-08,1,208
2018-07-09,0,256
2018-07-10,0,235
2018-07-11,0,227
2018-07-12,0,247
2018-07-13,2,225
2018-07-14,5,199
2018-07-15,6,198
2018-07-16,2,244
2018-07-17,2,229
2018-07-18,2,232
2018-07-19,1,246
2018-07-20,2,240
2018-07-21,1,191
2018-07-22,2,204
2018-07-23,2,264
2018-07-24,1,216
2018-07-25,1,238
2018-07-26,3,241
2018-07-27,2,210
2018-07-28,3,174
2018-07-29,3,199
2018-07-30,2,245
2018-07-31,0,212
2018-08-01,1,228
2018-08-02,0,231
2018-08-03,1,215
2018-08-04,1,195
2018-08-05,1,200
2018-08-06,2,226
2018-08-07,3,223
2018-08-08,2,235
2018-08-09,1,229
2018-08-10,0,231
2018-08-11,0,190
2018-08-12,1,181
2018-08-13,1,224
2018-08-14,0,218
2018-08-15,0,213
2018-08-16,0,217
2018-08-17,0,219
2018-08-18,2,182
2018-08-19,0,174
2018-08-20,3,238
2018-08-21,3,230
2018-08-22,2,228
2018-08-23,2,229
2018-08-24,1,200
2018-08-25,1,177
2018-08-26,3,196
2018-08-27,2,236
2018-08-28,4,223
2018-08-29,1,241
2018-08-30,2,233
2018-08-31,1,218
2018-09-01,1,197
2018-09-02,1,185
2018-09-03,2,231
2018-09-04,4,237
2018-09-05,0,243
2018-09-06,1,234
2018-09-07,3,234
2018-09-08,4,193
2018-09-09,3,203
2018-09-10,5,255
2018-09-11,4,244
2018-09-12,1,238
2018-09-13,1,232
2018-09-14,0,231
2018-09-15,1,188
2018-09-16,2,211
2018-09-17,3,233
2018-09-18,3,236
2018-09-19,1,260
2018-09-20,2,241
2018-09-21,4,242
2018-09-22,0,166
2018-09-23,4,227
2018-09-24,1,249
2018-09-25,0,264
2018-09-26,0,258
2018-09-27,0,211
2018-09-28,2,239
2018-09-29,2,201
2018-09-30,1,219
2018-10-01,4,276
2018-10-02,4,234
2018-10-03,0,251
2018-10-04,1,251
2018-10-05,2,243
2018-10-06,1,212
2018-10-07,2,207
2018-10-08,0,256
2018-10-09,1,234
2018-10-10,0,255
2018-10-11,1,251
2018-10-12,0,222
2018-10-13,2,202
2018-10-14,1,206
2018-10-15,2,247
2018-10-16,4,227
2018-10-17,3,233
2018-10-18,0,247
2018-10-19,0,229
2018-10-20,0,195
2018-10-21,2,220
2018-10-22,3,269
2018-10-23,0,230
2018-10-24,1,245
2018-10-25,3,242
2018-10-26,0,222
2018-10-27,0,178
2018-10-28,1,235
2018-10-29,2,245
2018-10-30,1,249
2018-10-31,1,244
2018-11-01,1,249
2018-11-02,0,236
2018-11-03,2,191
2018-11-04,2,218
2018-11-05,0,262
2018-11-06,1,259
2018-11-07,0,249
2018-11-08,1,243
2018-11-09,0,225
2018-11-10,2,205
2018-11-11,2,198
2018-11-12,1,255
2018-11-13,1,245
2018-11-14,2,250
2018-11-15,2,245
2018-11-16,0,238
2018-11-17,0,204
2018-11-18,0,230
2018-11-19,1,257
2018-11-20,2,261
2018-11-21,2,227
2018-11-22,1,213
2018-11-23,4,219
2018-11-24,5,186
2018-11-25,2,219
2018-11-26,3,265
2018-11-27,0,257
2018-11-28,2,241
2018-11-29,2,264
2018-11-30,2,227
2018-12-01,2,205
2018-12-02,2,207
2018-12-03,1,246
2018-12-04,3,231
2018-12-05,0,261
2018-12-06,0,247
2018-12-07,0,249
2018-12-08,1,185
2018-12-09,0,239
2018-12-10,3,253
2018-12-11,1,245
2018-12-12,2,239
2018-12-13,1,245
2018-12-14,0,227
2018-12-15,3,174
2018-12-16,0,216
2018-12-17,1,266
2018-12-18,2,250
2018-12-19,1,237
2018-12-20,1,230
2018-12-21,1,221
2018-12-22,2,189
2018-12-23,0,189
2018-12-24,2,188
2018-12-25,2,177
2018-12-26,1,212
2018-12-27,1,215
2018-12-28,4,207
2018-12-29,2,193
2018-12-30,2,188
2018-12-31,3,176
2019-01-01,1,206
2019-01-02,0,224
2019-01-03,0,234
2019-01-04,1,224
2019-01-05,1,191
2019-01-06,3,202
2019-01-07,1,251
2019-01-08,1,235
2019-01-09,3,249
2019-01-10,1,251
2019-01-11,1,235
2019-01-12,2,212
2019-01-13,3,207
2019-01-14,2,253
2019-01-15,4,240
2019-01-16,3,239
2019-01-17,2,231
2019-01-18,2,236
2019-01-19,3,202
2019-01-20,0,224
2019-01-21,1,251
2019-01-22,4,253
2019-01-23,1,226
2019-01-24,2,256
2019-01-25,1,242
2019-01-26,2,204
2019-01-27,0,228
2019-01-28,0,253
2019-01-29,1,249
2019-01-30,5,250
2019-01-31,5,254
2019-02-01,3,234
2019-02-02,3,200
2019-02-03,0,216
2019-02-04,0,261
2019-02-05,2,235
2019-02-06,0,257
2019-02-07,3,236
2019-02-08,2,229
2019-02-09,3,196
2019-02-10,3,209
2019-02-11,3,262
2019-02-12,2,266
2019-02-13,0,239
2019-02-14,0,241
2019-02-15,2,221
2019-02-16,1,211
2019-02-17,2,219
2019-02-18,0,225
2019-02-19,3,244
2019-02-20,1,247
2019-02-21,1,246
2019-02-22,1,231
2019-02-23,2,200
2019-02-24,1,208
2019-02-25,2,250
2019-02-26,1,233
2019-02-27,1,240
2019-02-28,1,250
2019-03-01,2,238
2019-03-02,2,212
2019-03-03,0,229
2019-03-04,0,264
2019-03-05,1,225
2019-03-06,0,252
2019-03-07,1,244
2019-03-08,1,247
2019-03-09,0,196
2019-03-10,0,210
2019-03-11,0,249
2019-03-12,1,236
2019-03-13,2,241
2019-03-14,0,246
2019-03-15,3,234
2019-03-16,2,203
2019-03-17,1,228
2019-03-18,3,244
2019-03-19,1,230
2019-03-20,2,243
2019-03-21,1,241
2019-03-22,1,253
2019-03-23,0,196
2019-03-24,1,212
2019-03-25,1,249
2019-03-26,0,234
2019-03-27,0,247
2019-03-28,3,257
2019-03-29,1,235
2019-03-30,2,184
2019-03-31,2,209
2019-04-01,0,236
2019-04-02,1,250
2019-04-03,0,250
2019-04-04,0,245
2019-04-05,0,232
2019-04-06,1,209
2019-04-07,1,219
2019-04-08,1,248
2019-04-09,0,250
2019-04-10,0,248
2019-04-11,0,254
2019-04-12,1,241
2019-04-13,1,208
2019-04-14,1,213
2019-04-15,1,253
2019-04-16,2,241
2019-04-17,0,246
2019-04-18,2,215
2019-04-19,3,197
2019-04-20,2,194
2019-04-21,1,215
2019-04-22,2,230
2019-04-23,1,250
2019-04-24,3,228
2019-04-25,1,241
2019-04-26,0,229
2019-04-27,2,199
2019-04-28,4,189
2019-04-29,1,239
2019-04-30,0,248
2019-05-01,2,241
2019-05-02,2,250
2019-05-03,3,240
2019-05-04,3,218
2019-05-05,2,216
2019-05-06,1,278
2019-05-07,1,249
2019-05-08,2,254
2019-05-09,2,264
2019-05-10,3,228
2019-05-11,1,240
2019-05-12,2,221
2019-05-13,3,250
2019-05-14,2,259
2019-05-15,1,251
2019-05-16,0,245
2019-05-17,2,234
2019-05-18,3,210
2019-05-19,2,237
2019-05-20,1,259
2019-05-21,2,261
2019-05-22,1,274
2019-05-23,3,239
2019-05-24,1,249
2019-05-25,1,200
2019-05-26,0,233
2019-05-27,3,243
2019-05-28,2,256
2019-05-29,1,234
2019-05-30,1,226
2019-05-31,2,233
2019-06-01,0,206
2019-06-02,2,216
2019-06-03,0,254
2019-06-04,1,258
2019-06-05,1,254
2019-06-06,2,243
2019-06-07,2,250
2019-06-08,3,201
2019-06-09,2,206
2019-06-10,1,238
2019-06-11,2,258
2019-06-12,0,260
2019-06-13,1,229
2019-06-14,2,240
2019-06-15,3,183
2019-06-16,0,203
2019-06-17,4,233
2019-06-18,1,227
2019-06-19,3,242
2019-06-20,2,227
2019-06-21,1,221
2019-06-22,0,189
2019-06-23,0,196
2019-06-24,1,236
2019-06-25,3,243
2019-06-26,1,216
2019-06-27,4,236
2019-06-28,0,235
2019-06-29,0,178
2019-06-30,1,187
2019-07-01,3,220
2019-07-02,2,226
2019-07-03,0,216
2019-07-04,0,192
2019-07-05,1,209
2019-07-06,0,194
2019-07-07,0,186
2019-07-08,2,251
2019-07-09,2,232
2019-07-10,3,234
2019-07-11,0,238
2019-07-12,2,225
2019-07-13,1,190
2019-07-14,0,203
2019-07-15,0,237
2019-07-16,1,220
2019-07-17,2,234
2019-07-18,3,211
2019-07-19,2,223
2019-07-20,1,186
2019-07-21,2,199
2019-07-22,0,231
2019-07-23,0,232
2019-07-24,1,229
2019-07-25,1,231
2019-07-26,1,215
2019-07-27,0,191
2019-07-28,0,199
2019-07-29,0,249
2019-07-30,0,224
2019-07-31,2,236
2019-08-01,1,226
2019-08-02,0,215
2019-08-03,1,168
2019-08-04,0,196
2019-08-05,0,244
2019-08-06,0,220
2019-08-07,0,210
2019-08-08,2,227
2019-08-09,1,234
2019-08-10,1,190
2019-08-11,0,177
2019-08-12,1,226
2019-08-13,1,220
2019-08-14,1,230
2019-08-15,3,226
2019-08-16,2,232
2019-08-17,0,169
2019-08-18,2,207
2019-08-19,2,244
2019-08-20,1,237
2019-08-21,3,215
2019-08-22,3,216
2019-08-23,0,213
2019-08-24,1,189
2019-08-25,0,188
2019-08-26,2,233
2019-08-27,2,218
2019-08-28,1,251
2019-08-29,1,226
2019-08-30,3,229
2019-08-31,0,190
2019-09-01,1,214
2019-09-02,2,228
2019-09-03,3,237
2019-09-04,3,233
2019-09-05,1,218
2019-09-06,1,248
2019-09-07,4,200
2019-09-08,4,217
2019-09-09,2,231
2019-09-10,2,245
2019-09-11,2,215
2019-09-12,1,247
2019-09-13,1,224
2019-09-14,2,196
2019-09-15,2,209
2019-09-16,1,242
2019-09-17,3,234
2019-09-18,2,246
2019-09-19,2,230
2019-09-20,2,213
2019-09-21,4,175
2019-09-22,6,208
2019-09-23,5,253
2019-09-24,4,242
2019-09-25,2,239
2019-09-26,2,249
2019-09-27,1,235
2019-09-28,4,201
2019-09-29,3,227
2019-09-30,2,233
2019-10-01,1,231
2019-10-02,2,251
2019-10-03,3,240
2019-10-04,2,240
2019-10-05,1,179
2019-10-06,0,205
2019-10-07,2,247
2019-10-08,0,233
2019-10-09,2,235
2019-10-10,2,229
2019-10-11,2,238
2019-10-12,2,180
2019-10-13,0,201
2019-10-14,0,220
2019-10-15,0,239
2019-10-16,2,210
2019-10-17,1,238
2019-10-18,0,207
2019-10-19,2,199
2019-10-20,1,208
2019-10-21,2,241
2019-10-22,1,230
2019-10-23,1,239
2019-10-24,0,251
2019-10-25,1,223
2019-10-26,2,188
2019-10-27,2,215
2019-10-28,0,226
2019-10-29,0,228
2019-10-30,1,243
2019-10-31,0,232
2019-11-01,0,207
2019-11-02,1,186
2019-11-03,1,180
2019-11-04,1,215
2019-11-05,1,230
2019-11-06,0,253
2019-11-07,1,233
2019-11-08,1,211
2019-11-09,1,200
2019-11-10,1,202
2019-11-11,4,245
2019-11-12,1,238
2019-11-13,5,234
2019-11-14,4,235
2019-11-15,0,218
2019-11-16,0,194
2019-11-17,2,192
2019-11-18,1,231
2019-11-19,3,232
2019-11-20,3,224
2019-11-21,1,235